Regional Weather Roundup
Issued by NWS

Home | Current Version | Previous Version | Graphics & Text | Print | Product List | Glossary On
Versions: 1 2 3 4 5 6 7 8 9 10 11 12 13 14 15 16 17 18 19 20 21 22 23 24 25 26 27 28 29 30 31 32 33 34 35 36 37 38 39 40 41 42 43 44 45 46 47 48 49 50
000
ASUS43 KOAX 230002
RWRNE

WEATHER ROUNDUP FOR NEBRASKA
NATIONAL WEATHER SERVICE OMAHA NE
600 PM CST WED FEB 22 2017

NOTES: SATELLITE DATA IS BEING USED TO AUGMENT CLOUD COVER ABOVE
       12000 FEET.
       "FAIR" INDICATES FEW OR NO CLOUDS BELOW 12,000 FEET WITH NO
       SIGNIFICANT WEATHER AND/OR OBSTRUCTIONS TO VISIBILITY.

  * THESE STATIONS DO NOT REPORT WEATHER SUCH AS RAIN...SNOW OR FOG.

NEZ001>004-019>022-054>056-230100-
NEBRASKA PANHANDLE

CITY           SKY/WX    TMP DP  RH WIND       PRES   REMARKS
SCOTTSBLUFF    CLOUDY    52  16  24 NW8       29.79R
6HR MIN TEMP:  52; 6HR MAX TEMP:  57;

ALLIANCE       CLOUDY    50  12  21 NW13      29.77R
6HR MIN TEMP:  50; 6HR MAX TEMP:  57;

CHADRON        PTCLDY    51  22  31 N10       29.79R
6HR MIN TEMP:  51; 6HR MAX TEMP:  57;

KIMBALL        MOCLDY    48  20  33 N14       29.81R
SIDNEY         CLEAR     52  15  23 N14       29.79R
6HR MIN TEMP:  52; 6HR MAX TEMP:  61;

$$

NEZ057>060-069>072-079>082-230100-
SOUTHWEST NEBRASKA

CITY           SKY/WX    TMP DP  RH WIND       PRES   REMARKS
NORTH PLATTE   CLEAR     59  19  21 N7        29.75S
6HR MIN TEMP:  59; 6HR MAX TEMP:  66;

IMPERIAL       CLEAR     58  21  24 NE10      29.75R
6HR MIN TEMP:  58; 6HR MAX TEMP:  64;

LEXINGTON      CLEAR     59  24  25 N7        29.74R
MCCOOK         CLEAR     61  24  24 NE7       29.74R
6HR MIN TEMP:  61; 6HR MAX TEMP:  68;

OGALLALA       CLEAR     57  22  25 NE7       29.77R
$$

NEZ005>010-023>029-035>040-094-230100-
NORTH CENTRAL NEBRASKA

CITY           SKY/WX    TMP DP  RH WIND       PRES   REMARKS
VALENTINE      CLEAR     52  25  35 N13       29.77R
6HR MIN TEMP:  52; 6HR MAX TEMP:  60;

AINSWORTH      CLEAR     51  28  40 N7        29.77R
BROKEN BOW     CLEAR     58  25  28 N12       29.74R
6HR MIN TEMP:  58; 6HR MAX TEMP:  67;

O`NEILL        CLEAR     54  31  42 NW7       29.77R
ORD            CLEAR     58  29  33 N9        29.74R
6HR MIN TEMP:  58; 6HR MAX TEMP:  66;

THEDFORD       MOCLDY    56  25  30 N5        29.77R
$$

NEZ041-046>049-061>064-073>077-083>087-230100-
SOUTH CENTRAL NEBRASKA

CITY           SKY/WX    TMP DP  RH WIND       PRES   REMARKS
GRAND ISLAND   CLEAR     60  31  33 N7        29.73R
6HR MIN TEMP:  60; 6HR MAX TEMP:  71;

AURORA         CLEAR     61  32  33 N8        29.73R
HASTINGS       CLEAR     63  23  21 N8        29.73R
6HR MIN TEMP:  63; 6HR MAX TEMP:  72;

HEBRON         CLEAR     67  27  22 N8        29.71R
HOLDREGE       CLEAR     63  20  19 N5        29.73R
KEARNEY *      CLEAR     64  21  19 N8        29.73S
YORK           CLEAR     61  32  33 N12       29.73R
$$

NEZ011>018-030>034-042>045-230100-
NORTHEAST NEBRASKA

CITY           SKY/WX    TMP DP  RH WIND       PRES   REMARKS
NORFOLK        CLEAR     57  30  35 N14       29.74R
6HR MIN TEMP:  57; 6HR MAX TEMP:  68;

ALBION         CLEAR     60  29  31 N9        29.76R
BLAIR          CLEAR     63  36  37 NW15      29.70R
FREMONT        CLEAR     61  33  35 NW8       29.72R
TEKAMAH        CLEAR     60  35  39 NW10      29.70R
6HR MIN TEMP:  60; 6HR MAX TEMP:  71;

WAYNE          CLEAR     56  36  46 NW13G18   29.73R
$$

NEZ050>053-065>068-078-088>093-230100-
SOUTHEAST NEBRASKA

CITY           SKY/WX    TMP DP  RH WIND       PRES   REMARKS
LINCOLN        CLEAR     66  33  29 N12       29.72R
6HR MIN TEMP:  66; 6HR MAX TEMP:  76;

OMAHA EPPLEY   PTCLDY    64  38  38 NW16      29.69R
6HR MIN TEMP:  64; 6HR MAX TEMP:  75;

BEATRICE       CLEAR     65  34  31 N10       29.69R
FALLS CITY     PTCLDY    69  37  30 N3        29.65R
6HR MIN TEMP:  69; 6HR MAX TEMP:  77;

NEBRASKA CITY  CLEAR     65  29  25 N9        29.68R
PLATTSMOUTH    CLEAR     66  28  24 N6        29.69R
$$

NEZ044-045-051>053-067-230100-
OMAHA AREA

CITY           SKY/WX    TMP DP  RH WIND       PRES   REMARKS
OMAHA EPPLEY   PTCLDY    64  38  38 NW16      29.69R
6HR MIN TEMP:  64; 6HR MAX TEMP:  75;

BLAIR          CLEAR     63  36  37 NW15      29.70R
FREMONT        CLEAR     61  33  35 NW8       29.72R
MILLARD        CLEAR     68  38  34 NW9G18    29.70R
PLATTSMOUTH    CLEAR     66  28  24 N6        29.69R
WAHOO          FAIR      61  36  38 N13       29.71R
$$



USA.gov is the U.S. government's official web portal to all federal, state and local government web resources and services.